Terminal Aerodrome Forecast
Issued by NWS Sioux Falls, SD

Home | Current Version | Previous Version | Graphics & Text | Print | Product List | Glossary Off
Versions: 1 2 3 4 5 6 7 8 9 10 11 12 13 14 15 16 17 18 19 20

000
FTUS43 KFSD 021120
TAFSUX
TAF
KSUX 021120Z 0212/0312 20005KT P6SM SKC
     FM021400 26009KT P6SM SKC
     FM021800 32013G19KT P6SM SKC
     FM030000 35007KT P6SM SKC
     FM030700 02003KT P6SM SKC=

USA.gov is the U.S. government's official web portal to all federal, state and local government web resources and services.